STARLINK-35862, 66628

Orbit data source: Space-Track

STARLINK-35862, 66628 is a payload satellite owned by SpaceX/Seattle (US) in LEO that was launched on Sun, 23 Nov 2025 UTC via an FALCON 9 launch vehicle from the Air Force Western Test Range (AFWTR). Payload-class satellites include a variety of spacecraft equipped with specific instruments for various scientific and technological missions. These include communications satellites like Starlink; space stations such as the ISS; scientific satellites like the Hubble; Earth observation satellites from companies like Planet Labs, Umbra, and HawkEye 360; GPS; miniature CubeSats for education and research; and military/defense satellites.

Loading next visibility...
Identifier
66628, 2025-271M
Orbit
LEO
Country
Flag of USUS
Related business
Manufacturer
SpaceX/Seattle
Mission
Operational Commercial Communications
Bus & Motor
STARLINK V2MO, Unknown motor
Mass
575 kg wet, ~530 kg dry
Launch date (UTC)
2025-11-23 (1 month ago)
Launch vehicle
FALCON 9
Launch site
Air Force Western Test Range (AFWTR)
Object type
Payload
Rocket body
Debris
Shape & HBR
Box + 2 Pan, 17.7 m
Radar Cross Section
36.964 m²

Expand to show TLE details & history
Last TLE update: 2 days ago

TLE from 2 days ago
0 STARLINK-35862
1 66628U 25271M   25353.94580738 -.00373781  00000-0 -77533-2 0  9995
2 66628  53.1592 152.7424 0002224  62.1747 297.9486 15.46540943  5323
Epoch: 2025-12-19T22:41Z
TLE epoch observation values (Epoch: 2025-12-19T22:41:57.757Z)
Latitude
-0.00003°
Longitude
83.47205°
Altitude
427.051 km
Speed
7.657 km/s
True Right ascension
10h 10m 58s
True Declination
0° 00' 00"
Sunlit
Object was in full shadow at epoch
Visualization orbit readout
Latitude
Unknown
Longitude
Unknown
Altitude
Unknown
Speed
Unknown
Apparent Right ascension
Unknown
Apparent Declination
Unknown
Sunlit
N/A
Visualization observer readout
Local Sidereal Time
13:58:59
Azimuth
Unknown
Elevation
Unknown
Doppler factor
Unknown
Orbital elements
Apogee altitude
428.626 km
Perigee altitude
425.599 km
Semi-major axis
6,805.249 km
Eccentricity
0.00022
Inclination
53.1592°
RAAN
152.7424°
Arg. of periapsis
62.1747°
True anomaly
297.92608°
Mean anomaly
297.9486°
Eccentric anomaly
297.93734°
Mean motion
3.86614 °/min
Orbital period
93.12 mins
BSTAR
-0.0077533
Loading maneuver chart data...
Computing Atmospheric mass density...
Loading historical data...
Loading historical data...
Loading historical data...
Loading historical data...
Loading historical data...
Loading historical data...
Loading historical data...

Documentation

Showing up to 5 results
|